TimeCDT,TemperatureF,Dew PointF,Humidity,Sea Level PressureIn,VisibilityMPH,Wind Direction,Wind SpeedMPH,Gust SpeedMPH,PrecipitationIn,Events,Conditions,WindDirDegrees,DateUTC
12:15 AM,51.8,50.0,94,29.93,0.5,SSE,9.2,-,N/A,,Overcast,150,2012-10-13 05:15:00
12:55 AM,55.4,53.6,94,29.91,0.5,SSE,9.2,-,N/A,,Overcast,160,2012-10-13 05:55:00
1:15 AM,55.4,53.6,94,29.92,0.5,South,10.4,-,N/A,,Overcast,170,2012-10-13 06:15:00
1:35 AM,57.2,55.4,94,29.91,0.5,South,9.2,-,N/A,,Overcast,170,2012-10-13 06:35:00
1:55 AM,57.2,55.4,94,29.91,0.5,South,10.4,-,N/A,,Overcast,190,2012-10-13 06:55:00
2:15 AM,60.8,59.0,94,29.90,2.5,SSW,15.0,24.2,N/A,,Overcast,200,2012-10-13 07:15:00
2:35 AM,60.8,60.8,100,29.97,5.0,WNW,27.6,32.2,N/A,,Overcast,290,2012-10-13 07:35:00
2:55 AM,55.4,53.6,94,29.95,4.0,NNW,8.1,-,N/A,,Overcast,330,2012-10-13 07:55:00
3:15 AM,55.4,53.6,94,29.98,8.0,West,6.9,-,0.01,Thunderstorm,Overcast,280,2012-10-13 08:15:00
3:35 AM,55.4,53.6,94,29.96,8.0,South,5.8,-,0.10,Thunderstorm,Thunderstorm,180,2012-10-13 08:35:00
3:55 AM,55.4,53.6,94,29.92,10.0,South,4.6,-,0.15,Thunderstorm,Mostly Cloudy,170,2012-10-13 08:55:00
4:15 AM,57.2,53.6,88,29.92,10.0,South,6.9,-,0.03,Thunderstorm,Overcast,180,2012-10-13 09:15:00
4:35 AM,57.2,55.4,94,29.92,10.0,South,8.1,-,0.07,Thunderstorm,Thunderstorm,180,2012-10-13 09:35:00
4:55 AM,57.2,55.4,94,29.91,9.0,South,4.6,-,0.16,Thunderstorm,Overcast,180,2012-10-13 09:55:00
5:15 AM,59.0,55.4,88,29.90,7.0,South,6.9,-,0.14,Thunderstorm,Thunderstorm,170,2012-10-13 10:15:00
5:55 AM,59.0,57.2,94,29.95,7.0,South,11.5,-,0.37,Thunderstorm,Thunderstorm,180,2012-10-13 10:55:00
6:15 AM,60.8,57.2,88,29.86,10.0,SE,4.6,-,0.02,,Mostly Cloudy,140,2012-10-13 11:15:00
6:35 AM,59.0,57.2,94,29.87,10.0,SSE,11.5,-,0.02,,Overcast,150,2012-10-13 11:35:00
6:55 AM,60.8,57.2,88,29.85,9.0,SSE,12.7,-,0.05,,Overcast,150,2012-10-13 11:55:00
7:15 AM,60.8,57.2,88,29.85,10.0,SSE,12.7,-,0.02,,Overcast,160,2012-10-13 12:15:00
7:35 AM,60.8,57.2,88,29.83,10.0,SSE,13.8,-,0.02,,Mostly Cloudy,150,2012-10-13 12:35:00
7:55 AM,60.8,57.2,88,29.85,10.0,South,9.2,-,0.02,,Scattered Clouds,190,2012-10-13 12:55:00
8:15 AM,60.8,57.2,88,29.85,10.0,South,10.4,-,N/A,,Scattered Clouds,180,2012-10-13 13:15:00
8:55 AM,59.0,57.2,94,29.80,8.0,South,3.5,-,N/A,,Clear,180,2012-10-13 13:55:00
9:35 AM,62.6,60.8,94,29.80,10.0,SSE,12.7,-,N/A,,Clear,160,2012-10-13 14:35:00
9:55 AM,64.4,60.8,88,29.80,10.0,SSE,13.8,-,N/A,,Partly Cloudy,160,2012-10-13 14:55:00
10:15 AM,66.2,62.6,88,29.80,10.0,SSE,16.1,20.7,N/A,,Scattered Clouds,160,2012-10-13 15:15:00
10:35 AM,66.2,62.6,88,29.79,10.0,South,18.4,-,N/A,,Scattered Clouds,170,2012-10-13 15:35:00
10:55 AM,66.2,62.6,88,29.78,10.0,South,16.1,20.7,N/A,,Partly Cloudy,170,2012-10-13 15:55:00
11:15 AM,69.8,64.4,83,29.78,10.0,South,12.7,-,N/A,,Mostly Cloudy,190,2012-10-13 16:15:00
11:35 AM,69.8,64.4,83,29.77,10.0,South,15.0,-,N/A,,Overcast,190,2012-10-13 16:35:00
11:55 AM,69.8,64.4,83,29.76,10.0,South,12.7,-,N/A,,Overcast,180,2012-10-13 16:55:00
12:35 PM,71.6,64.4,78,29.74,10.0,South,16.1,21.9,N/A,,Overcast,190,2012-10-13 17:35:00
1:15 PM,73.4,66.2,78,29.72,10.0,South,18.4,24.2,N/A,,Overcast,190,2012-10-13 18:15:00
1:35 PM,75.2,62.6,65,29.70,10.0,SSW,19.6,26.5,N/A,,Mostly Cloudy,210,2012-10-13 18:35:00
1:55 PM,75.2,62.6,65,29.68,10.0,SW,19.6,25.3,N/A,,Mostly Cloudy,220,2012-10-13 18:55:00
2:15 PM,77.0,62.6,61,29.67,10.0,SW,19.6,25.3,N/A,,Partly Cloudy,220,2012-10-13 19:15:00
2:35 PM,78.8,64.4,61,29.65,10.0,SSW,16.1,-,N/A,,Scattered Clouds,210,2012-10-13 19:35:00
2:55 PM,78.8,62.6,57,29.65,10.0,SSW,16.1,23.0,N/A,,Partly Cloudy,210,2012-10-13 19:55:00
3:15 PM,77.0,62.6,61,29.63,10.0,SSW,9.2,20.7,N/A,,Mostly Cloudy,210,2012-10-13 20:15:00
3:35 PM,78.8,60.8,54,29.62,10.0,SW,10.4,-,N/A,,Mostly Cloudy,230,2012-10-13 20:35:00
3:55 PM,77.0,62.6,61,29.61,10.0,West,11.5,16.1,N/A,,Scattered Clouds,280,2012-10-13 20:55:00
4:15 PM,69.8,59.0,68,29.61,9.0,SW,12.7,31.1,0.01,Thunderstorm,Mostly Cloudy,220,2012-10-13 21:15:00
4:35 PM,69.8,60.8,73,29.61,6.0,WSW,8.1,19.6,0.30,Thunderstorm,Thunderstorm,250,2012-10-13 21:35:00
4:55 PM,69.8,60.8,73,29.62,10.0,West,13.8,-,0.33,Thunderstorm,Overcast,280,2012-10-13 21:55:00
5:15 PM,69.8,57.2,64,29.62,10.0,West,11.5,-,0.01,,Mostly Cloudy,280,2012-10-13 22:15:00
5:35 PM,71.6,55.4,57,29.62,10.0,West,11.5,-,0.01,,Scattered Clouds,280,2012-10-13 22:35:00
5:55 PM,73.4,55.4,53,29.62,10.0,West,10.4,-,0.01,,Scattered Clouds,280,2012-10-13 22:55:00
6:15 PM,71.6,53.6,53,29.62,10.0,West,10.4,-,N/A,,Partly Cloudy,270,2012-10-13 23:15:00
6:35 PM,69.8,53.6,56,29.62,10.0,West,9.2,-,N/A,,Clear,280,2012-10-13 23:35:00
7:35 PM,64.4,53.6,68,29.62,10.0,WSW,8.1,-,N/A,,Clear,250,2012-10-14 00:35:00
7:55 PM,60.8,51.8,72,29.63,10.0,WSW,6.9,-,N/A,,Clear,250,2012-10-14 00:55:00
8:35 PM,59.0,48.2,67,29.64,10.0,SW,4.6,-,N/A,,Clear,230,2012-10-14 01:35:00
9:15 PM,60.8,46.4,59,29.67,10.0,West,13.8,-,N/A,,Clear,280,2012-10-14 02:15:00
9:35 PM,59.0,46.4,63,29.68,10.0,West,10.4,-,N/A,,Clear,280,2012-10-14 02:35:00
9:55 PM,57.2,46.4,67,29.68,10.0,West,10.4,-,N/A,,Clear,280,2012-10-14 02:55:00
10:15 PM,57.2,46.4,67,29.67,10.0,West,10.4,-,N/A,,Clear,280,2012-10-14 03:15:00
11:15 PM,57.2,46.4,67,29.66,10.0,West,10.4,-,N/A,,Clear,280,2012-10-14 04:15:00
11:35 PM,57.2,46.4,67,29.66,10.0,West,12.7,-,N/A,,Clear,280,2012-10-14 04:35:00